Location: Home
(42.5358°N, 72.7383°W)
Time: 19:57:16
(UTC-04:00)

First-Move - Pass Details

Date: 26 August 2022
Orbit: 569 x 659 km, 97.6° (Epoch: 27 September)

Event Time Altitude Azimuth Distance (km) Brightness Sun altitude
Rises 05:31:21 0° 2° (N) 2,836 ? -7.5°
Reaches altitude 10° 05:33:41 10° 353° (N) 1,917 ? -7.1°
Maximum altitude 05:37:22 32° 290° (WNW) 1,009 ? -6.5°
Drops below altitude 10° 05:40:59 10° 227° (SW) 1,875 ? -5.9°
Enters shadow 05:42:34 - 220° (SW) 2,483 ? -5.6°
